Weather in Veresoch

Ukraine / Chernihiv Region     51°18′56″N   31°47′08″E
temp.,
°C
wind,
m/s
gust,
m/s
humid.,
%
clouds,
%
prec.,
mm/h
press.,
hPa
HPBL,
m
24 july, sat
sat2400:00+19wnw2462100 0.0 101486
03:00+18nw3666100 0.0 1014158
06:00+17wnw357299 0.0 1014144
09:00+22wnw34605 0.0 1015475
12:00+26wnw43435 0.0 10151900
15:00+26wnw4443100 0.0 10141869
18:00+23nw2361100 0.1 101572
21:00+19nw23778 0.6 101622
25 july, sun
sun2500:00+18n11813 0.0 101711
03:00+17wnw018214 0.2 101811
06:00+17ene118288 0.0 101911
09:00+20sse117699 0.0 101972
12:00+23ene116253 0.0 1020261
15:00+25sse335196 1.1 10191495
18:00+19e358995 3.9 102088
21:00+18e227832 4.7 102014
26 july, mon
mon2600:00+17ne11766 0.0 102111
03:00+16se22810 0.0 102211
06:00+16se22852 0.0 102211
09:00+22se34703 0.0 1022376
12:00+27se344537 0.0 10221993
15:00+25sse1254100 0.0 1021255
18:00+25ese465622 0.2 1021499
21:00+20se336612 0.2 102128
27 july, tue
tue2700:00+18e22773 0.1 102224
03:00+17ese35720 0.1 102267
06:00+17se35692 0.0 102288
09:00+23sse46515 0.0 1022407
12:00+28sse56370 0.0 10211489
15:00+30sse553334 0.0 10202740
18:00+29sse453897 0.0 10201985
21:00+23se485191 0.0 1019151
28 july, wed
wed2800:00+20se495925 0.0 1020137
03:00+19se411626 0.0 1019203
06:00+19sse41359100 0.0 1017249
09:00+23s61150100 0.0 1016424
12:00+21sse41072100 0.1 1016293
15:00+23se51168100 0.9 1013337
18:00+29s7945100 0.0 10111411
21:00+21sse49835 2.3 1010147